Flag for Sierra Leone Weather past 2 weeks in Kenema, Sierra Leone

Now
90 °F

Partly sunny.


Feels Like: 103 °F
Forecast: N/A
Wind: 14 mph from Southwest

Location: Roberts Field

Current Time: May 27, 2015 at 2:40:31 PM

Latest Report: May 27, 2015 at 2:00 PM


Visibility: N/A

Pressure: 29.86 "Hg

Humidity: 67%

Dew point: 77 °F

Location of KenemaLocation

Historic Weather in Kenema — Graph

°F

Kenema temperature yesterday

Maximum temperature yesterday: 86 °F (at 11:00 AM)
Minimum temperature yesterday: 79 °F (at 12:30 AM)
Average temperature yesterday: 82 °F

Past Weeks' High & Low Weather Summary

 TemperatureHumidityPressure
High93 °F (May 18, 1:30 PM)100% (May 13, 2:00 AM)29.98 "Hg (May 13, 2:00 AM)
Low72 °F (May 15, 6:00 AM)56% (May 18, 1:30 PM)29.80 "Hg (May 12, 4:30 PM)
Average82 °F84%29.89 "Hg
* Reported May 12 1:00 PM — May 27 1:30 PM, Kenema, Weather by CustomWeather, © 2015

Note: Actual official high and low records may vary slightly from our data, if they occured in-between our weather recording intervals... More about our weather records

Advertising

Kenema weather history for previous 24 hours

 ConditionsComfort  
Time TempWeatherWind HumidityBarometerVisibility
1:30 PM
Wed, May 27
90 °FPartly sunny.12 mph67%29.89 "HgN/A
12:30 PM88 °FPartly sunny.12 mph75%29.89 "HgN/A
12:00 PM88 °FPartly sunny.12 mph75%29.89 "HgN/A
11:30 AM88 °FPartly sunny.12 mph75%29.89 "HgN/A
11:00 AM88 °FPartly sunny.8 mph75%29.89 "HgN/A
10:30 AM88 °FPartly sunny.6 mph75%29.89 "HgN/A
10:00 AM86 °FPartly sunny.9 mph79%29.89 "HgN/A
9:30 AM86 °FPartly sunny.No wind79%29.89 "HgN/A
9:00 AM84 °FPassing clouds.No wind84%29.89 "HgN/A
8:00 AM81 °FPartly sunny.No wind94%29.89 "HgN/A
7:30 AM79 °FPassing clouds.No wind94%29.89 "HgN/A
7:00 AM79 °FPassing clouds.No wind94%29.86 "HgN/A
4:30 AM77 °FPassing clouds.No wind94%29.86 "HgN/A
11:00 PM
Tue, May 26
79 °FPassing clouds.No wind94%29.92 "HgN/A
10:30 PM79 °FPassing clouds.No wind94%29.92 "HgN/A
10:00 PM79 °FPassing clouds.No wind94%29.92 "HgN/A
9:30 PM81 °FPassing clouds.No wind89%29.89 "HgN/A
8:30 PM81 °FPassing clouds.No wind94%29.89 "HgN/A
8:00 PM81 °FPassing clouds.No wind94%29.86 "HgN/A
7:30 PM81 °FScattered clouds.No wind94%29.86 "HgN/A
7:00 PM81 °FScattered clouds.No wind89%29.86 "HgN/A
6:30 PM82 °FScattered clouds.5 mph84%29.86 "HgN/A
6:00 PM82 °FPartly sunny.5 mph84%29.86 "HgN/A
5:00 PM86 °FPartly sunny.10 mph75%29.83 "HgN/A
4:30 PM86 °FPartly sunny.9 mph75%29.83 "HgN/A
4:00 PM86 °FPartly sunny.14 mph79%29.83 "HgN/A
3:30 PM86 °FPartly sunny.7 mph79%29.83 "HgN/A
3:00 PM84 °FPartly sunny.12 mph84%29.86 "HgN/A
2:00 PM84 °FPartly sunny.13 mph84%29.89 "HgN/A
Weather by CustomWeather, © 2015

See weather overviewHow to use our weather pages